This is the latest recevied weather packets stored in our database for station/object KD8DNO-13. If no packets are shown the sender has not sent any weather packets the latest 10 day(s).
| Time | Temp. | Humidity | Pressure | Rain* | Wind** | Luminosity | Snow |
|---|---|---|---|---|---|---|---|
| 1788545283 | 26.11° C | 89% | 1018.6 hPa | 1.02 mm | - | - | - |
| 1788544983 | 26.11° C | 89% | 1018.6 hPa | 1.02 mm | - | - | - |
| 1788544683 | 25.56° C | 92% | 1018.6 hPa | 1.02 mm | - | - | - |
| 1788544383 | 25° C | 92% | 1018.6 hPa | 1.02 mm | - | - | - |
| 1788544083 | 25° C | 92% | 1017.6 hPa | 1.02 mm | - | - | - |
| 1788543783 | 24.44° C | 91% | 1017.6 hPa | 1.02 mm | - | - | - |
| 1788543483 | 24.44° C | 91% | 1018.2 hPa | 1.02 mm | - | - | - |
| 1788543183 | 25° C | 92% | 1018.2 hPa | 0.51 mm | - | - | - |
| 1788542883 | 24.44° C | 92% | 1018.2 hPa | 0.51 mm | - | - | - |
| 1788542583 | 24.44° C | 92% | 1018.2 hPa | 1.27 mm | - | - | - |
| 1788542284 | 25° C | 91% | 1018.2 hPa | 2.03 mm | - | - | - |
| 1788541983 | 25° C | 92% | 1018.9 hPa | 3.56 mm | - | - | - |
| 1788541683 | 25° C | 92% | 1018.9 hPa | 3.81 mm | - | - | - |
| 1788541384 | 25° C | 92% | 1018.6 hPa | 3.81 mm | - | - | - |
| 1788541083 | 25° C | 91% | 1018.6 hPa | 3.81 mm | - | - | - |
| 1788540783 | 24.44° C | 93% | 1018.6 hPa | 3.81 mm | - | - | - |
| 1788540483 | 24.44° C | 93% | 1018.6 hPa | 3.81 mm | - | - | - |
| 1788540183 | 24.44° C | 91% | 1018.6 hPa | 3.81 mm | - | - | - |
| 1788539883 | 24.44° C | 91% | 1018.9 hPa | 4.06 mm | - | - | - |
| 1788539583 | 24.44° C | 91% | 1018.9 hPa | 9.91 mm | - | - | - |
| 1788539283 | 24.44° C | 91% | 1018.9 hPa | 9.91 mm | - | - | - |
| 1788538983 | 24.44° C | 91% | 1019.3 hPa | 9.65 mm | - | - | - |
| 1788538683 | 24.44° C | 91% | 1019.3 hPa | 9.14 mm | - | - | - |
| 1788538383 | 24.44° C | 91% | 1019.3 hPa | 7.11 mm | - | - | - |
| 1788538083 | 24.44° C | 91% | 1019.3 hPa | 7.11 mm | - | - | - |
* Rain latest hour (hover to see other rain measurements)
** Current wind speed in m/s (hover to see current wind gust speed)